When you browse on this site, cookies collect data to enhance your experience and personalize the content and advertising you see.
Visit our Privacy Policy to learn more. By continuing to use the site, you agree to this use of cookies and data.
  • In Hungary
  • List of Countries
  • For 7 days
  • Water Temperature
  • Weather Map
  • News
  • Weather Widgets
  • user-avatar
    Login

    Hourly Weather Siliwonki

    Today, 21 February, Friday

    Time Temperature Precipitation Wind Pressure Humidity
    00:00 0°C° 0 mm 3 mps 750 mmHg 77%
    01:00 0°C° 0 mm 3 mps 750 mmHg 79%
    02:00 -2°C° 0 mm 4 mps 749 mmHg 83%
    03:00 -2°C° 0 mm 4 mps 749 mmHg 83%
    04:00 -2°C° 0 mm 5 mps 748 mmHg 83%
    05:00 -1°C° 0 mm 5 mps 747 mmHg 83%
    06:00 -1°C° 0 mm 5 mps 747 mmHg 82%
    07:00 -2°C° 0 mm 6 mps 746 mmHg 81%
    08:00 -2°C° 0 mm 7 mps 746 mmHg 80%
    15:00 0°C° 0.5 mm 4 mps 746 mmHg 96%
    16:00 0°C° 0.5 mm 4 mps 746 mmHg 96%
    17:00 0°C° 0.5 mm 4 mps 747 mmHg 96%
    18:00 0°C° 0.1 mm 4 mps 748 mmHg 94%
    19:00 +1°C° 0.1 mm 3 mps 749 mmHg 92%
    20:00 +1°C° 0.1 mm 3 mps 750 mmHg 89%
    21:00 +1°C° 0 mm 3 mps 750 mmHg 88%
    22:00 0°C° 0 mm 3 mps 751 mmHg 88%
    23:00 0°C° 0 mm 3 mps 751 mmHg 87%

    Tomorrow, 22 February, Saturday

    Time Temperature Precipitation Wind Pressure Humidity
    00:00 0°C° 0 mm 3 mps 752 mmHg 88%
    01:00 0°C° 0 mm 3 mps 752 mmHg 89%
    02:00 -1°C° 0 mm 3 mps 753 mmHg 90%
    03:00 -1°C° 0 mm 3 mps 753 mmHg 91%
    04:00 -1°C° 0 mm 3 mps 753 mmHg 92%
    05:00 -1°C° 0 mm 3 mps 753 mmHg 93%
    06:00 -1°C° 0 mm 3 mps 753 mmHg 93%
    07:00 -2°C° 0 mm 4 mps 753 mmHg 93%
    08:00 -2°C° 0 mm 4 mps 753 mmHg 92%
    09:00 0°C° 0 mm 5 mps 752 mmHg 84%
    10:00 +1°C° 0 mm 6 mps 752 mmHg 77%
    11:00 +2°C° 0 mm 7 mps 751 mmHg 69%
    12:00 +3°C° 0 mm 7 mps 751 mmHg 65%
    13:00 +4°C° 0 mm 8 mps 750 mmHg 62%
    14:00 +4°C° 0 mm 8 mps 749 mmHg 59%
    15:00 +3°C° 0 mm 9 mps 748 mmHg 60%
    16:00 +3°C° 0 mm 9 mps 747 mmHg 60%
    17:00 +3°C° 0 mm 9 mps 745 mmHg 61%
    18:00 +3°C° 0 mm 9 mps 745 mmHg 61%
    19:00 +4°C° 0 mm 8 mps 745 mmHg 61%
    20:00 +4°C° 0 mm 8 mps 744 mmHg 61%
    21:00 +5°C° 0 mm 8 mps 744 mmHg 61%
    22:00 +5°C° 0 mm 9 mps 743 mmHg 60%
    23:00 +5°C° 0 mm 9 mps 742 mmHg 59%

    Day after tomorrow, 23 February, Sunday

    Time Temperature Precipitation Wind Pressure Humidity
    00:00 +5°C° 0.4 mm 9 mps 743 mmHg 65%
    01:00 +4°C° 0.4 mm 8 mps 743 mmHg 70%
    02:00 +4°C° 0.4 mm 8 mps 743 mmHg 76%
    03:00 +2°C° 0 mm 8 mps 743 mmHg 72%
    04:00 +2°C° 0 mm 8 mps 743 mmHg 69%
    05:00 +1°C° 0 mm 8 mps 743 mmHg 66%
    06:00 +1°C° 0.1 mm 8 mps 743 mmHg 68%
    07:00 0°C° 0.1 mm 8 mps 743 mmHg 71%
    08:00 0°C° 0.1 mm 8 mps 744 mmHg 74%
    09:00 +1°C° 0 mm 9 mps 744 mmHg 69%
    10:00 +1°C° 0 mm 9 mps 744 mmHg 64%
    11:00 +2°C° 0 mm 9 mps 744 mmHg 59%
    12:00 +2°C° 0 mm 9 mps 744 mmHg 56%
    13:00 +4°C° 0 mm 8 mps 744 mmHg 53%
    14:00 +4°C° 0 mm 8 mps 744 mmHg 51%
    15:00 +4°C° 0 mm 7 mps 743 mmHg 55%
    16:00 +3°C° 0 mm 7 mps 742 mmHg 60%
    17:00 +3°C° 0 mm 6 mps 741 mmHg 64%
    18:00 +2°C° 0.2 mm 6 mps 740 mmHg 74%
    19:00 +2°C° 0.2 mm 6 mps 739 mmHg 85%
    20:00 +1°C° 0.2 mm 6 mps 737 mmHg 95%
    21:00 +1°C° 2.3 mm 6 mps 735 mmHg 95%
    22:00 +1°C° 2.3 mm 5 mps 732 mmHg 96%
    23:00 +1°C° 2.3 mm 5 mps 729 mmHg 96%

    24 February, Monday

    Time Temperature Precipitation Wind Pressure Humidity
    00:00 +2°C° 2.6 mm 6 mps 728 mmHg 94%
    01:00 +2°C° 2.6 mm 7 mps 728 mmHg 92%
    02:00 +2°C° 2.6 mm 8 mps 727 mmHg 89%
    03:00 +1°C° 0.8 mm 10 mps 729 mmHg 91%
    04:00 -2°C° 0.8 mm 11 mps 732 mmHg 92%
    05:00 -4°C° 0.8 mm 13 mps 734 mmHg 93%
    06:00 -3°C° 0.2 mm 12 mps 736 mmHg 92%
    07:00 -2°C° 0.2 mm 11 mps 738 mmHg 90%
    08:00 -2°C° 0.2 mm 10 mps 740 mmHg 89%
    09:00 -2°C° 0.1 mm 10 mps 741 mmHg 85%
    10:00 0°C° 0.1 mm 10 mps 742 mmHg 82%
    11:00 +1°C° 0.1 mm 9 mps 743 mmHg 79%
    12:00 +1°C° 0 mm 9 mps 744 mmHg 72%
    13:00 +2°C° 0 mm 9 mps 745 mmHg 64%
    14:00 +4°C° 0 mm 8 mps 746 mmHg 57%
    15:00 +4°C° 0 mm 8 mps 746 mmHg 59%
    16:00 +3°C° 0 mm 7 mps 747 mmHg 61%
    17:00 +3°C° 0 mm 6 mps 747 mmHg 63%
    18:00 +2°C° 0 mm 5 mps 748 mmHg 68%
    19:00 +1°C° 0 mm 4 mps 748 mmHg 73%
    20:00 0°C° 0 mm 4 mps 749 mmHg 78%
    21:00 +1°C° 0 mm 3 mps 749 mmHg 80%
    22:00 +1°C° 0 mm 3 mps 749 mmHg 82%
    23:00 0°C° 0 mm 3 mps 748 mmHg 85%

    25 February, Tuesday

    Time Temperature Precipitation Wind Pressure Humidity
    00:00 0°C° 0 mm 3 mps 748 mmHg 85%
    01:00 -1°C° 0 mm 4 mps 747 mmHg 84%
    02:00 -1°C° 0 mm 4 mps 747 mmHg 84%
    03:00 -1°C° 0 mm 5 mps 746 mmHg 82%
    04:00 0°C° 0 mm 5 mps 745 mmHg 80%
    05:00 -1°C° 0 mm 6 mps 744 mmHg 78%
    06:00 -2°C° 0.4 mm 6 mps 743 mmHg 82%
    07:00 -2°C° 0.4 mm 7 mps 742 mmHg 86%
    08:00 -2°C° 0.4 mm 8 mps 741 mmHg 89%
    09:00 -1°C° 0.3 mm 7 mps 740 mmHg 88%
    10:00 0°C° 0.3 mm 7 mps 740 mmHg 86%
    11:00 +2°C° 0.3 mm 7 mps 739 mmHg 84%
    12:00 +3°C° 0.1 mm 7 mps 739 mmHg 84%
    13:00 +5°C° 0.1 mm 7 mps 739 mmHg 83%
    14:00 +6°C° 0.1 mm 7 mps 739 mmHg 82%
    15:00 +5°C° 0 mm 6 mps 738 mmHg 84%
    16:00 +5°C° 0 mm 6 mps 738 mmHg 86%
    17:00 +6°C° 0 mm 5 mps 738 mmHg 88%
    18:00 +6°C° 0 mm 5 mps 737 mmHg 89%
    19:00 +6°C° 0 mm 5 mps 737 mmHg 89%
    20:00 +6°C° 0 mm 5 mps 737 mmHg 90%
    21:00 +6°C° 0 mm 5 mps 737 mmHg 91%
    22:00 +5°C° 0 mm 5 mps 737 mmHg 91%
    23:00 +5°C° 0 mm 5 mps 737 mmHg 91%

    26 February, Wednesday

    Time Temperature Precipitation Wind Pressure Humidity
    00:00 +5°C° 0.5 mm 5 mps 736 mmHg 92%
    01:00 +5°C° 0.5 mm 5 mps 735 mmHg 92%
    02:00 +5°C° 0.5 mm 5 mps 735 mmHg 93%
    03:00 +5°C° 0.2 mm 5 mps 734 mmHg 92%
    04:00 +5°C° 0.2 mm 5 mps 734 mmHg 91%
    05:00 +5°C° 0.2 mm 5 mps 733 mmHg 89%
    06:00 +5°C° 1 mm 5 mps 733 mmHg 90%
    07:00 +3°C° 1 mm 5 mps 733 mmHg 91%
    08:00 +3°C° 1 mm 5 mps 733 mmHg 91%
    09:00 +2°C° 0.4 mm 5 mps 733 mmHg 92%
    10:00 +2°C° 0.4 mm 5 mps 733 mmHg 93%
    11:00 +1°C° 0.4 mm 5 mps 733 mmHg 93%
    12:00 +2°C° 0.1 mm 5 mps 733 mmHg 82%
    13:00 +3°C° 0.1 mm 5 mps 733 mmHg 71%
    14:00 +4°C° 0.1 mm 6 mps 733 mmHg 60%
    15:00 +4°C° 0.1 mm 6 mps 733 mmHg 62%
    16:00 +4°C° 0.1 mm 6 mps 733 mmHg 65%
    17:00 +3°C° 0.1 mm 6 mps 733 mmHg 68%
    18:00 +3°C° 0.3 mm 6 mps 733 mmHg 67%
    19:00 +2°C° 0.3 mm 6 mps 733 mmHg 66%
    20:00 +2°C° 0.3 mm 5 mps 734 mmHg 65%
    21:00 +1°C° 0 mm 5 mps 734 mmHg 65%
    22:00 +1°C° 0 mm 5 mps 734 mmHg 65%
    23:00 0°C° 0 mm 5 mps 734 mmHg 65%
    Show more